,,,PA_Meas_PMT16A,,PR_Meas_QMR101_102,,RH_Meas_QMH101,,SR_Meas_QMS101,,TA_Meas_QMH101,,GenWind,,GenWind,
date,time,status,PA,status,PR,status,RH,status,SR,status,TA,status,DirAvg,status,SpdAvg,
2010-08-07, 00:00:04,VALID,1001.78,VALID,0,VALID,87.9848,VALID,0,VALID,24.5209,VALID,139,VALID,1.35469,
2010-08-07, 00:01:04,VALID,1001.75,VALID,0,VALID,87.8169,VALID,0,VALID,24.5013,VALID,142,VALID,1.56016,
2010-08-07, 00:02:04,VALID,1001.71,VALID,0.5,VALID,88.1755,VALID,0,VALID,24.4623,VALID,127,VALID,1.31328,
2010-08-07, 00:03:04,VALID,1001.66,VALID,0,VALID,88.4807,VALID,0,VALID,24.4642,VALID,122,VALID,1.25352,
2010-08-07, 00:04:04,VALID,1001.68,VALID,0,VALID,88.3968,VALID,0,VALID,24.4037,VALID,114,VALID,1.31719,
2010-08-07, 00:05:04,VALID,1001.68,VALID,0,VALID,88.7859,VALID,0,VALID,24.3647,VALID,103,VALID,1.25156,
2010-08-07, 00:06:04,VALID,1001.67,VALID,0,VALID,88.9614,VALID,0,VALID,24.3433,VALID,114,VALID,1.51289,
2010-08-07, 00:07:04,VALID,1001.68,VALID,0,VALID,89.3963,VALID,0,VALID,24.3043,VALID,123,VALID,1.33867,
2010-08-07, 00:08:04,VALID,1001.72,VALID,0,VALID,89.7625,VALID,0,VALID,24.2866,VALID,119,VALID,1.06328,
2010-08-07, 00:09:04,VALID,1001.69,VALID,0,VALID,89.9456,VALID,0,VALID,24.2458,VALID,110,VALID,1.15625,
2010-08-07, 00:10:04,VALID,1001.69,VALID,0.5,VALID,90.1134,VALID,0,VALID,24.2067,VALID,117,VALID,0.985937,
2010-08-07, 00:11:04,VALID,1001.7,VALID,0,VALID,90.2508,VALID,0,VALID,24.2067,VALID,117,VALID,1.27422,
2010-08-07, 00:12:04,VALID,1001.68,VALID,0,VALID,90.5026,VALID,0,VALID,24.1872,VALID,120,VALID,1.30781,
2010-08-07, 00:13:04,VALID,1001.68,VALID,0,VALID,90.8077,VALID,0,VALID,24.1677,VALID,117,VALID,1,
2010-08-07, 00:14:04,VALID,1001.67,VALID,0,VALID,91.0519,VALID,0,VALID,24.1482,VALID,116,VALID,1.34063,
2010-08-07, 00:15:04,VALID,1001.65,VALID,0,VALID,91.0519,VALID,0.112286,VALID,24.1092,VALID,122,VALID,1.66484,
2010-08-07, 00:16:04,VALID,1001.65,VALID,0,VALID,90.9909,VALID,0,VALID,24.1092,VALID,123,VALID,1.85977,
2010-08-07, 00:17:04,VALID,1001.63,VALID,0,VALID,90.9069,VALID,0,VALID,24.0897,VALID,118,VALID,2.06797,
2010-08-07, 00:18:04,VALID,1001.63,VALID,0.5,VALID,91.0671,VALID,0,VALID,24.0701,VALID,123,VALID,1.58555,
2010-08-07, 00:19:04,VALID,1001.62,VALID,0,VALID,91.1587,VALID,0.112286,VALID,24.0488,VALID,130,VALID,1.14375,
2010-08-07, 00:20:04,VALID,1001.58,VALID,0,VALID,91.1053,VALID,0,VALID,24.0506,VALID,139,VALID,1.40078,
2010-08-07, 00:21:04,VALID,1001.57,VALID,0,VALID,91.0977,VALID,0,VALID,24.0329,VALID,155,VALID,1.47305,
2010-08-07, 00:22:04,VALID,1001.56,VALID,0,VALID,91.1434,VALID,0,VALID,24.0329,VALID,143,VALID,1.60977,
2010-08-07, 00:23:04,VALID,1001.52,VALID,0,VALID,91.1968,VALID,0,VALID,23.9921,VALID,134,VALID,1.33594,
2010-08-07, 00:24:04,VALID,1001.51,VALID,0,VALID,91.3494,VALID,0,VALID,24.0134,VALID,156,VALID,1.55078,
2010-08-07, 00:25:04,VALID,1001.51,VALID,0.5,VALID,91.441,VALID,0,VALID,23.9939,VALID,154,VALID,1.6168,
2010-08-07, 00:26:04,VALID,1001.49,VALID,0,VALID,91.4105,VALID,0,VALID,23.9939,VALID,137,VALID,1.40664,
2010-08-07, 00:27:04,VALID,1001.47,VALID,0,VALID,91.2503,VALID,0,VALID,23.9939,VALID,146,VALID,1.71133,
2010-08-07, 00:28:04,VALID,1001.45,VALID,0,VALID,91.0671,VALID,0,VALID,24.0134,VALID,145,VALID,1.60898,
2010-08-07, 00:29:04,VALID,1001.43,VALID,0,VALID,91.0366,VALID,0,VALID,24.0134,VALID,150,VALID,1.56523,
2010-08-07, 00:30:04,VALID,1001.39,VALID,0,VALID,91.0443,VALID,0,VALID,23.9939,VALID,141,VALID,1.79922,
2010-08-07, 00:31:04,VALID,1001.38,VALID,0,VALID,90.9222,VALID,0,VALID,23.9744,VALID,139,VALID,1.83398,
2010-08-07, 00:32:04,VALID,1001.36,VALID,0.5,VALID,91.0214,VALID,0,VALID,23.9939,VALID,143,VALID,1.36289,
2010-08-07, 00:33:04,VALID,1001.34,VALID,0,VALID,91.1968,VALID,0,VALID,23.9744,VALID,143,VALID,1.25273,
2010-08-07, 00:34:04,VALID,1001.29,VALID,0,VALID,91.2274,VALID,0,VALID,23.9549,VALID,136,VALID,1.11211,
2010-08-07, 00:35:04,VALID,1001.25,VALID,0,VALID,91.2274,VALID,0,VALID,23.9354,VALID,150,VALID,1.00781,
2010-08-07, 00:36:04,VALID,1001.23,VALID,0,VALID,91.2579,VALID,0,VALID,23.9159,VALID,140,VALID,1.63359,
2010-08-07, 00:37:04,VALID,1001.2,VALID,0,VALID,91.296,VALID,0,VALID,23.9159,VALID,151,VALID,1.54531,
2010-08-07, 00:38:04,VALID,1001.17,VALID,0,VALID,91.3113,VALID,0,VALID,23.875,VALID,149,VALID,1.88164,
2010-08-07, 00:39:04,VALID,1001.19,VALID,0.5,VALID,91.4334,VALID,0,VALID,23.8963,VALID,162,VALID,1.74922,
2010-08-07, 00:40:04,VALID,1001.19,VALID,0,VALID,91.502,VALID,0,VALID,23.8768,VALID,154,VALID,2.14492,
2010-08-07, 00:41:04,VALID,1001.16,VALID,0,VALID,91.6165,VALID,0,VALID,23.8573,VALID,154,VALID,1.90117,
2010-08-07, 00:42:04,VALID,1001.17,VALID,0,VALID,91.7385,VALID,0,VALID,23.8573,VALID,150,VALID,1.60859,
2010-08-07, 00:43:04,VALID,1001.17,VALID,0,VALID,91.7614,VALID,0,VALID,23.8183,VALID,149,VALID,2.04844,
2010-08-07, 00:44:04,VALID,1001.14,VALID,0.5,VALID,91.8072,VALID,0,VALID,23.8183,VALID,148,VALID,1.35039,
2010-08-07, 00:45:04,VALID,1001.11,VALID,0,VALID,91.914,VALID,0,VALID,23.7793,VALID,128,VALID,1.35469,
2010-08-07, 00:46:04,VALID,1001.14,VALID,0,VALID,92.0285,VALID,0,VALID,23.7597,VALID,133,VALID,1.73086,
2010-08-07, 00:47:04,VALID,1001.1,VALID,0,VALID,92.0971,VALID,0,VALID,23.7402,VALID,146,VALID,1.39609,
2010-08-07, 00:48:04,VALID,1001.1,VALID,0,VALID,92.1811,VALID,0,VALID,23.7402,VALID,141,VALID,1.87656,
2010-08-07, 00:49:04,VALID,1001.1,VALID,0,VALID,92.2116,VALID,0,VALID,23.7207,VALID,146,VALID,1.61992,
2010-08-07, 00:50:04,VALID,1001.1,VALID,0,VALID,92.3031,VALID,0,VALID,23.7207,VALID,147,VALID,1.4207,
2010-08-07, 00:51:04,VALID,1001.02,VALID,0,VALID,92.3566,VALID,0,VALID,23.6994,VALID,145,VALID,1.42773,
2010-08-07, 00:52:04,VALID,1000.97,VALID,0.5,VALID,92.4252,VALID,0,VALID,23.6994,VALID,153,VALID,1.2207,
2010-08-07, 00:53:04,VALID,1000.93,VALID,0,VALID,92.4863,VALID,0,VALID,23.6994,VALID,149,VALID,1.4332,
2010-08-07, 00:54:04,VALID,1000.9,VALID,0,VALID,92.4939,VALID,0,VALID,23.6604,VALID,149,VALID,1.03281,
2010-08-07, 00:55:04,VALID,1000.83,VALID,0,VALID,92.4863,VALID,0,VALID,23.6604,VALID,156,VALID,1.15859,
2010-08-07, 00:56:04,VALID,1000.79,VALID,0,VALID,92.5244,VALID,0,VALID,23.6799,VALID,186,VALID,1.31328,
2010-08-07, 00:57:04,VALID,1000.76,VALID,0,VALID,92.5778,VALID,0,VALID,23.7189,VALID,180,VALID,1.48438,
2010-08-07, 00:58:04,VALID,1000.74,VALID,0,VALID,92.5854,VALID,0.112286,VALID,23.6976,VALID,170,VALID,1.17813,
2010-08-07, 00:59:04,VALID,1000.71,VALID,0,VALID,92.5244,VALID,0.112286,VALID,23.6994,VALID,173,VALID,1.18164,
2010-08-07, 01:00:04,VALID,1000.7,VALID,0,VALID,92.532,VALID,0,VALID,23.6994,VALID,172,VALID,0.777734,
2010-08-07, 01:01:04,VALID,1000.64,VALID,0,VALID,92.532,VALID,0,VALID,23.6799,VALID,165,VALID,1.16914,
2010-08-07, 01:02:04,VALID,1000.62,VALID,0,VALID,92.5549,VALID,0,VALID,23.6994,VALID,162,VALID,1.04727,
2010-08-07, 01:03:04,VALID,1000.62,VALID,0,VALID,92.5473,VALID,0.112286,VALID,23.6799,VALID,153,VALID,1.04961,
2010-08-07, 01:04:04,VALID,1000.58,VALID,0,VALID,92.5549,VALID,0.112286,VALID,23.6799,VALID,159,VALID,0.984766,
2010-08-07, 01:05:04,VALID,1000.54,VALID,0,VALID,92.532,VALID,0,VALID,23.6799,VALID,163,VALID,0.880859,
2010-08-07, 01:06:04,VALID,1000.53,VALID,0,VALID,92.5397,VALID,0,VALID,23.6817,VALID,162,VALID,0.758203,
2010-08-07, 01:07:04,VALID,1000.48,VALID,0,VALID,92.5778,VALID,0,VALID,23.6604,VALID,158,VALID,0.754297,
2010-08-07, 01:08:04,VALID,1000.51,VALID,0,VALID,92.6312,VALID,0,VALID,23.6622,VALID,158,VALID,0.475391,
2010-08-07, 01:09:04,VALID,1000.47,VALID,0,VALID,92.6923,VALID,0,VALID,23.6427,VALID,158,VALID,0,
2010-08-07, 01:10:04,VALID,1000.46,VALID,0,VALID,92.7533,VALID,0,VALID,23.6427,VALID,158,VALID,0,
2010-08-07, 01:11:04,VALID,1000.46,VALID,0,VALID,92.7838,VALID,0,VALID,23.6232,VALID,158,VALID,0,
2010-08-07, 01:12:04,VALID,1000.43,VALID,0,VALID,92.8296,VALID,0,VALID,23.6036,VALID,158,VALID,0,
2010-08-07, 01:13:04,VALID,1000.42,VALID,0,VALID,92.8372,VALID,0,VALID,23.5841,VALID,158,VALID,0,
2010-08-07, 01:14:04,VALID,1000.4,VALID,0,VALID,92.8372,VALID,0,VALID,23.5628,VALID,158,VALID,0,
2010-08-07, 01:15:04,VALID,1000.39,VALID,0,VALID,92.8754,VALID,0,VALID,23.5841,VALID,158,VALID,0,
2010-08-07, 01:16:04,VALID,1000.38,VALID,0,VALID,92.8601,VALID,0,VALID,23.5628,VALID,158,VALID,0,
2010-08-07, 01:17:04,VALID,1000.36,VALID,0,VALID,92.883,VALID,0,VALID,23.5646,VALID,158,VALID,0,
2010-08-07, 01:18:04,VALID,1000.35,VALID,0,VALID,92.883,VALID,0,VALID,23.5646,VALID,158,VALID,0,
2010-08-07, 01:19:04,VALID,1000.32,VALID,0,VALID,92.8983,VALID,0,VALID,23.5451,VALID,158,VALID,0,
2010-08-07, 01:20:04,VALID,1000.33,VALID,0,VALID,92.8983,VALID,0,VALID,23.5451,VALID,158,VALID,0,
2010-08-07, 01:21:04,VALID,1000.32,VALID,0,VALID,92.9059,VALID,0,VALID,23.5433,VALID,158,VALID,0,
2010-08-07, 01:22:04,VALID,1000.35,VALID,0,VALID,92.9288,VALID,0.112286,VALID,23.5433,VALID,158,VALID,0,
2010-08-07, 01:23:04,VALID,1000.31,VALID,0,VALID,92.9822,VALID,0,VALID,23.5433,VALID,158,VALID,0,
2010-08-07, 01:24:04,VALID,1000.33,VALID,0,VALID,93.0203,VALID,0,VALID,23.5433,VALID,158,VALID,0,
2010-08-07, 01:25:04,VALID,1000.34,VALID,0,VALID,93.0585,VALID,0,VALID,23.5433,VALID,158,VALID,0,
2010-08-07, 01:26:04,VALID,1000.33,VALID,0,VALID,93.089,VALID,0,VALID,23.5238,VALID,158,VALID,0,
2010-08-07, 01:27:04,VALID,1000.36,VALID,0,VALID,93.1348,VALID,0,VALID,23.5238,VALID,158,VALID,0,
2010-08-07, 01:28:04,VALID,1000.32,VALID,0,VALID,93.1577,VALID,0,VALID,23.5238,VALID,158,VALID,0,
2010-08-07, 01:29:04,VALID,1000.31,VALID,0,VALID,93.1729,VALID,0,VALID,23.5256,VALID,158,VALID,0,
2010-08-07, 01:30:04,VALID,1000.29,VALID,0,VALID,93.2111,VALID,0,VALID,23.5043,VALID,159,VALID,0,
2010-08-07, 01:31:04,VALID,1000.29,VALID,0,VALID,93.234,VALID,0,VALID,23.5043,VALID,159,VALID,0,
2010-08-07, 01:32:04,VALID,1000.29,VALID,0,VALID,93.2645,VALID,0,VALID,23.5238,VALID,159,VALID,0,
2010-08-07, 01:33:04,VALID,1000.27,VALID,0,VALID,93.2797,VALID,0,VALID,23.5451,VALID,159,VALID,0,
2010-08-07, 01:34:04,VALID,1000.25,VALID,0,VALID,93.2797,VALID,0,VALID,23.5238,VALID,159,VALID,0,
2010-08-07, 01:35:04,VALID,1000.24,VALID,0,VALID,93.2797,VALID,0,VALID,23.522,VALID,158,VALID,0,
2010-08-07, 01:36:04,VALID,1000.2,VALID,0,VALID,93.2492,VALID,0,VALID,23.5664,VALID,158,VALID,0,
2010-08-07, 01:37:04,VALID,1000.15,VALID,0,VALID,93.2492,VALID,0,VALID,23.5646,VALID,158,VALID,0,
2010-08-07, 01:38:04,VALID,1000.15,VALID,0,VALID,93.2797,VALID,0,VALID,23.5841,VALID,183,VALID,0,
2010-08-07, 01:39:04,VALID,1000.12,VALID,0,VALID,93.2797,VALID,0,VALID,23.5841,VALID,240,VALID,1.00898,
2010-08-07, 01:40:04,VALID,1000.07,VALID,0,VALID,93.2874,VALID,0,VALID,23.6232,VALID,239,VALID,0.724609,
2010-08-07, 01:41:04,VALID,1000.06,VALID,0,VALID,93.2797,VALID,0,VALID,23.6036,VALID,239,VALID,1.03164,
2010-08-07, 01:42:04,VALID,1000.05,VALID,0,VALID,93.2797,VALID,0,VALID,23.6036,VALID,235,VALID,1.27266,
2010-08-07, 01:43:04,VALID,1000.02,VALID,0,VALID,93.2568,VALID,0,VALID,23.6054,VALID,239,VALID,1.1043,
2010-08-07, 01:44:04,VALID,999.974,VALID,0,VALID,93.2187,VALID,0,VALID,23.6019,VALID,244,VALID,0.734375,
2010-08-07, 01:45:04,VALID,999.976,VALID,0,VALID,93.1882,VALID,0,VALID,23.6036,VALID,242,VALID,0.736328,
2010-08-07, 01:46:04,VALID,999.965,VALID,0,VALID,93.1348,VALID,0,VALID,23.6036,VALID,239,VALID,0.891406,
2010-08-07, 01:47:04,VALID,999.943,VALID,0,VALID,93.1119,VALID,0,VALID,23.5841,VALID,237,VALID,1.32813,
2010-08-07, 01:48:04,VALID,999.953,VALID,0,VALID,93.0737,VALID,0,VALID,23.6054,VALID,230,VALID,1.22383,
2010-08-07, 01:49:04,VALID,999.95,VALID,0,VALID,93.0356,VALID,0,VALID,23.5841,VALID,225,VALID,1.55117,
2010-08-07, 01:50:04,VALID,999.887,VALID,0,VALID,93.0203,VALID,0,VALID,23.6036,VALID,217,VALID,1.10273,
2010-08-07, 01:51:04,VALID,999.866,VALID,0,VALID,92.9822,VALID,0,VALID,23.5841,VALID,221,VALID,1.37578,
2010-08-07, 01:52:04,VALID,999.858,VALID,0,VALID,92.944,VALID,0,VALID,23.6036,VALID,216,VALID,1.02578,
2010-08-07, 01:53:04,VALID,999.861,VALID,0,VALID,92.8983,VALID,0,VALID,23.5823,VALID,216,VALID,0.938672,
2010-08-07, 01:54:04,VALID,999.898,VALID,0,VALID,92.8601,VALID,0,VALID,23.6036,VALID,215,VALID,0.798047,
2010-08-07, 01:55:04,VALID,999.861,VALID,0,VALID,92.8525,VALID,0,VALID,23.5841,VALID,177,VALID,0.905078,
2010-08-07, 01:56:04,VALID,999.854,VALID,0,VALID,92.7914,VALID,0,VALID,23.5433,VALID,176,VALID,1.38242,
2010-08-07, 01:57:04,VALID,999.883,VALID,0,VALID,92.7609,VALID,0,VALID,23.5628,VALID,161,VALID,1.4625,
2010-08-07, 01:58:04,VALID,999.891,VALID,0,VALID,92.7762,VALID,0,VALID,23.5628,VALID,146,VALID,1.74219,
2010-08-07, 01:59:04,VALID,999.875,VALID,0,VALID,92.8067,VALID,0,VALID,23.5628,VALID,153,VALID,1.57305,
2010-08-07, 02:00:04,VALID,999.861,VALID,0,VALID,92.8448,VALID,0,VALID,23.5628,VALID,168,VALID,1.40898,
2010-08-07, 02:01:04,VALID,999.85,VALID,0,VALID,92.8296,VALID,0.112286,VALID,23.5433,VALID,165,VALID,1.95039,
2010-08-07, 02:02:04,VALID,999.831,VALID,0,VALID,92.7762,VALID,0,VALID,23.5433,VALID,170,VALID,1.58203,
2010-08-07, 02:03:04,VALID,999.836,VALID,0,VALID,92.6923,VALID,0,VALID,23.5628,VALID,174,VALID,1.79297,
2010-08-07, 02:04:04,VALID,999.826,VALID,0,VALID,92.5473,VALID,0,VALID,23.5823,VALID,183,VALID,1.97109,
2010-08-07, 02:05:04,VALID,999.83,VALID,0,VALID,92.2574,VALID,0,VALID,23.6019,VALID,169,VALID,2.20078,
2010-08-07, 02:06:04,VALID,999.85,VALID,0,VALID,91.7767,VALID,0,VALID,23.6232,VALID,162,VALID,1.67969,
2010-08-07, 02:07:04,VALID,999.881,VALID,0,VALID,91.708,VALID,0,VALID,23.6214,VALID,166,VALID,1.60078,
2010-08-07, 02:08:04,VALID,999.878,VALID,0,VALID,91.7538,VALID,0,VALID,23.6427,VALID,163,VALID,1.65117,
2010-08-07, 02:09:04,VALID,999.887,VALID,0,VALID,91.5707,VALID,0,VALID,23.6232,VALID,163,VALID,1.34687,
2010-08-07, 02:10:04,VALID,999.887,VALID,0,VALID,91.502,VALID,0,VALID,23.6036,VALID,181,VALID,1.16875,
2010-08-07, 02:11:04,VALID,999.851,VALID,0,VALID,91.4715,VALID,0,VALID,23.6445,VALID,161,VALID,1.05625,
2010-08-07, 02:12:04,VALID,999.879,VALID,0,VALID,91.2808,VALID,0,VALID,23.6036,VALID,151,VALID,1.47148,
2010-08-07, 02:13:04,VALID,999.891,VALID,0,VALID,91.4181,VALID,0,VALID,23.6232,VALID,149,VALID,1.08633,
2010-08-07, 02:14:04,VALID,999.879,VALID,0,VALID,91.6012,VALID,0,VALID,23.6036,VALID,147,VALID,0.736328,
2010-08-07, 02:15:04,VALID,999.875,VALID,0,VALID,91.708,VALID,0,VALID,23.6036,VALID,145,VALID,1.06758,
2010-08-07, 02:16:04,VALID,999.859,VALID,0,VALID,91.8454,VALID,0,VALID,23.5841,VALID,135,VALID,0.974219,
2010-08-07, 02:17:04,VALID,999.817,VALID,0,VALID,91.9522,VALID,0,VALID,23.5646,VALID,134,VALID,0.446875,
2010-08-07, 02:18:04,VALID,999.844,VALID,0,VALID,92.0361,VALID,0,VALID,23.5256,VALID,134,VALID,0.219141,
2010-08-07, 02:19:04,VALID,999.858,VALID,0,VALID,92.1353,VALID,0,VALID,23.5256,VALID,197,VALID,0.569141,
2010-08-07, 02:20:04,VALID,999.855,VALID,0,VALID,92.2803,VALID,0,VALID,23.5646,VALID,197,VALID,0.23125,
2010-08-07, 02:21:04,VALID,999.854,VALID,0,VALID,92.3489,VALID,0,VALID,23.5433,VALID,197,VALID,0.365234,
2010-08-07, 02:22:04,VALID,999.877,VALID,0,VALID,92.3489,VALID,0,VALID,23.5433,VALID,330,VALID,0.655859,
2010-08-07, 02:23:04,VALID,999.904,VALID,0,VALID,92.3108,VALID,0,VALID,23.5238,VALID,330,VALID,0.254297,
2010-08-07, 02:24:04,VALID,999.916,VALID,0,VALID,92.3108,VALID,0,VALID,23.5256,VALID,330,VALID,0.812109,
2010-08-07, 02:25:04,VALID,999.932,VALID,0,VALID,92.2879,VALID,0,VALID,23.4848,VALID,347,VALID,1.02344,
2010-08-07, 02:26:04,VALID,999.94,VALID,0,VALID,92.2726,VALID,0,VALID,23.4653,VALID,1,VALID,1.34961,
2010-08-07, 02:27:04,VALID,999.927,VALID,0,VALID,92.2574,VALID,0,VALID,23.4671,VALID,15,VALID,1.69844,
2010-08-07, 02:28:04,VALID,999.969,VALID,0,VALID,92.204,VALID,0,VALID,23.4671,VALID,25,VALID,1.43867,
2010-08-07, 02:29:04,VALID,1000.01,VALID,0,VALID,92.2421,VALID,0,VALID,23.4458,VALID,20,VALID,1.09492,
2010-08-07, 02:30:04,VALID,1000.01,VALID,0,VALID,92.3413,VALID,0,VALID,23.4671,VALID,342,VALID,0.699609,
2010-08-07, 02:31:04,VALID,999.971,VALID,0,VALID,92.4328,VALID,0,VALID,23.4671,VALID,312,VALID,0.902344,
2010-08-07, 02:32:04,VALID,1000,VALID,0,VALID,92.5015,VALID,0,VALID,23.4671,VALID,296,VALID,0.953906,
2010-08-07, 02:33:04,VALID,999.983,VALID,0,VALID,92.5931,VALID,0,VALID,23.4671,VALID,291,VALID,0.546484,
2010-08-07, 02:34:04,VALID,999.973,VALID,0,VALID,92.6541,VALID,0,VALID,23.4671,VALID,307,VALID,0.630469,
2010-08-07, 02:35:04,VALID,999.991,VALID,0,VALID,92.6541,VALID,0,VALID,23.4671,VALID,296,VALID,0.701172,
2010-08-07, 02:36:04,VALID,999.988,VALID,0,VALID,92.677,VALID,0,VALID,23.4653,VALID,294,VALID,0.219922,
2010-08-07, 02:37:04,VALID,999.983,VALID,0,VALID,92.6999,VALID,0,VALID,23.4653,VALID,275,VALID,0.431641,
2010-08-07, 02:38:04,VALID,999.966,VALID,0,VALID,92.7075,VALID,0,VALID,23.4458,VALID,276,VALID,0.810938,
2010-08-07, 02:39:04,VALID,999.954,VALID,0,VALID,92.6846,VALID,0.112286,VALID,23.4653,VALID,277,VALID,0.640625,
2010-08-07, 02:40:04,VALID,999.939,VALID,0,VALID,92.6465,VALID,0,VALID,23.4653,VALID,265,VALID,0.889844,
2010-08-07, 02:41:04,VALID,999.91,VALID,0,VALID,92.6388,VALID,0,VALID,23.483,VALID,264,VALID,0.726172,
2010-08-07, 02:42:04,VALID,999.858,VALID,0,VALID,92.6312,VALID,0.112286,VALID,23.5043,VALID,266,VALID,0.954687,
2010-08-07, 02:43:04,VALID,999.845,VALID,0,VALID,92.6236,VALID,0,VALID,23.5043,VALID,246,VALID,1.03984,
2010-08-07, 02:44:04,VALID,999.877,VALID,0,VALID,92.471,VALID,0,VALID,23.5238,VALID,241,VALID,1.24961,
2010-08-07, 02:45:04,VALID,999.862,VALID,0,VALID,92.2803,VALID,0.112286,VALID,23.561,VALID,237,VALID,1.26328,
2010-08-07, 02:46:04,VALID,999.88,VALID,0,VALID,92.059,VALID,0,VALID,23.5628,VALID,200,VALID,1.02461,
2010-08-07, 02:47:04,VALID,999.856,VALID,0,VALID,91.853,VALID,0,VALID,23.5823,VALID,217,VALID,1.03633,
2010-08-07, 02:48:04,VALID,999.83,VALID,0,VALID,91.6851,VALID,0,VALID,23.6214,VALID,220,VALID,0.851172,
2010-08-07, 02:49:04,VALID,999.841,VALID,0,VALID,91.3876,VALID,0,VALID,23.6604,VALID,229,VALID,0.705078,
2010-08-07, 02:50:04,VALID,999.818,VALID,0,VALID,90.9527,VALID,0,VALID,23.6994,VALID,226,VALID,1.03047,
2010-08-07, 02:51:04,VALID,999.875,VALID,0,VALID,90.6704,VALID,0,VALID,23.7012,VALID,225,VALID,1.07773,
2010-08-07, 02:52:04,VALID,999.876,VALID,0,VALID,90.0982,VALID,0,VALID,23.7189,VALID,198,VALID,1.09219,
2010-08-07, 02:53:04,VALID,999.851,VALID,0,VALID,89.8769,VALID,0,VALID,23.7793,VALID,198,VALID,0.982813,
2010-08-07, 02:54:04,VALID,999.84,VALID,0,VALID,89.6099,VALID,0,VALID,23.8378,VALID,177,VALID,0.444141,
2010-08-07, 02:55:04,VALID,999.844,VALID,0,VALID,89.8083,VALID,0,VALID,23.7988,VALID,157,VALID,0.410156,
2010-08-07, 02:56:04,VALID,999.867,VALID,0,VALID,89.8388,VALID,0,VALID,23.7988,VALID,177,VALID,0.708984,
2010-08-07, 02:57:04,VALID,999.87,VALID,0,VALID,90.1821,VALID,0,VALID,23.8183,VALID,206,VALID,0.900781,
2010-08-07, 02:58:04,VALID,999.848,VALID,0,VALID,89.6786,VALID,0,VALID,23.8183,VALID,234,VALID,0.304688,
2010-08-07, 02:59:04,VALID,999.832,VALID,0,VALID,89.854,VALID,0,VALID,23.7775,VALID,234,VALID,0.25,
2010-08-07, 03:00:04,VALID,999.863,VALID,0,VALID,89.6633,VALID,0,VALID,23.7597,VALID,150,VALID,0.516406,
2010-08-07, 03:01:04,VALID,999.885,VALID,0,VALID,90.1745,VALID,0,VALID,23.7597,VALID,150,VALID,0.599609,
2010-08-07, 03:02:04,VALID,999.881,VALID,0,VALID,90.5865,VALID,0,VALID,23.7402,VALID,150,VALID,0.624219,
2010-08-07, 03:03:04,VALID,999.869,VALID,0,VALID,90.8459,VALID,0,VALID,23.7012,VALID,150,VALID,0.642187,
2010-08-07, 03:04:04,VALID,999.877,VALID,0,VALID,91.029,VALID,0,VALID,23.6817,VALID,124,VALID,0.834375,
2010-08-07, 03:05:04,VALID,999.891,VALID,0,VALID,91.1282,VALID,0,VALID,23.6232,VALID,119,VALID,0.738672,
2010-08-07, 03:06:04,VALID,999.874,VALID,0,VALID,91.2503,VALID,0,VALID,23.5841,VALID,119,VALID,0.667969,
2010-08-07, 03:07:04,VALID,999.909,VALID,0,VALID,91.4181,VALID,0,VALID,23.5628,VALID,119,VALID,0.827344,
2010-08-07, 03:08:04,VALID,999.903,VALID,0,VALID,91.647,VALID,0,VALID,23.5841,VALID,119,VALID,0.427734,
2010-08-07, 03:09:04,VALID,999.906,VALID,0,VALID,91.792,VALID,0,VALID,23.5628,VALID,77,VALID,0.699609,
2010-08-07, 03:10:04,VALID,999.924,VALID,0,VALID,92.0514,VALID,0,VALID,23.5628,VALID,64,VALID,0.858984,
2010-08-07, 03:11:04,VALID,999.94,VALID,0,VALID,92.1353,VALID,0,VALID,23.5841,VALID,64,VALID,0.608594,
2010-08-07, 03:12:04,VALID,999.936,VALID,0,VALID,92.2574,VALID,0,VALID,23.5646,VALID,64,VALID,0.785156,
2010-08-07, 03:13:04,VALID,999.922,VALID,0,VALID,92.3642,VALID,0,VALID,23.5451,VALID,65,VALID,0.831641,
2010-08-07, 03:14:04,VALID,999.956,VALID,0,VALID,92.4481,VALID,0,VALID,23.5256,VALID,72,VALID,0.538281,
2010-08-07, 03:15:04,VALID,999.943,VALID,0,VALID,92.5168,VALID,0,VALID,23.4848,VALID,72,VALID,0,
2010-08-07, 03:16:04,VALID,999.947,VALID,0,VALID,92.5702,VALID,0,VALID,23.4866,VALID,72,VALID,0,
2010-08-07, 03:17:04,VALID,999.922,VALID,0,VALID,92.6312,VALID,0,VALID,23.4671,VALID,72,VALID,0,
2010-08-07, 03:18:04,VALID,999.909,VALID,0,VALID,92.6999,VALID,0,VALID,23.4475,VALID,73,VALID,0,
2010-08-07, 03:19:04,VALID,999.925,VALID,0,VALID,92.7304,VALID,0,VALID,23.428,VALID,73,VALID,0,
2010-08-07, 03:20:04,VALID,999.9,VALID,0,VALID,92.7685,VALID,0,VALID,23.4085,VALID,79,VALID,0,
2010-08-07, 03:21:04,VALID,999.895,VALID,0,VALID,92.7838,VALID,0,VALID,23.3872,VALID,85,VALID,0,
2010-08-07, 03:22:04,VALID,999.843,VALID,0,VALID,92.7991,VALID,0,VALID,23.3872,VALID,85,VALID,0,
2010-08-07, 03:23:04,VALID,999.873,VALID,0,VALID,92.7991,VALID,0,VALID,23.3677,VALID,85,VALID,0,
2010-08-07, 03:24:04,VALID,999.836,VALID,0,VALID,92.8525,VALID,0,VALID,23.3482,VALID,85,VALID,0,
2010-08-07, 03:25:04,VALID,999.844,VALID,0,VALID,92.8677,VALID,0,VALID,23.3482,VALID,85,VALID,0,
2010-08-07, 03:26:04,VALID,999.813,VALID,0,VALID,92.9059,VALID,0,VALID,23.3287,VALID,85,VALID,0,
2010-08-07, 03:27:04,VALID,999.844,VALID,0,VALID,92.9364,VALID,0,VALID,23.3287,VALID,85,VALID,0,
2010-08-07, 03:28:04,VALID,999.873,VALID,0,VALID,92.9822,VALID,0,VALID,23.3305,VALID,85,VALID,0,
2010-08-07, 03:29:04,VALID,999.838,VALID,0,VALID,93.0051,VALID,0,VALID,23.3092,VALID,85,VALID,0,
2010-08-07, 03:30:04,VALID,999.899,VALID,0,VALID,93.0432,VALID,0,VALID,23.3305,VALID,94,VALID,0,
2010-08-07, 03:31:04,VALID,999.897,VALID,0,VALID,93.0966,VALID,0,VALID,23.3287,VALID,141,VALID,0.537109,
2010-08-07, 03:32:04,VALID,999.907,VALID,0,VALID,93.1119,VALID,0,VALID,23.3287,VALID,141,VALID,0.680469,
2010-08-07, 03:33:04,VALID,999.908,VALID,0,VALID,93.1195,VALID,0,VALID,23.3287,VALID,126,VALID,0.564062,
2010-08-07, 03:34:04,VALID,999.9,VALID,0,VALID,93.1195,VALID,0,VALID,23.3287,VALID,112,VALID,0.614453,
2010-08-07, 03:35:04,VALID,999.91,VALID,0,VALID,93.1043,VALID,0,VALID,23.3482,VALID,68,VALID,0.851563,
2010-08-07, 03:36:04,VALID,999.916,VALID,0,VALID,93.0432,VALID,0,VALID,23.3518,VALID,67,VALID,0.730859,
2010-08-07, 03:37:04,VALID,999.924,VALID,0,VALID,93.0127,VALID,0,VALID,23.35,VALID,64,VALID,0.938672,
2010-08-07, 03:38:04,VALID,999.902,VALID,0,VALID,92.9822,VALID,0,VALID,23.35,VALID,60,VALID,1.02227,
2010-08-07, 03:39:04,VALID,999.932,VALID,0,VALID,92.9593,VALID,0,VALID,23.3695,VALID,42,VALID,0.829297,
2010-08-07, 03:40:04,VALID,999.955,VALID,0,VALID,92.9593,VALID,0,VALID,23.389,VALID,35,VALID,0.830078,
2010-08-07, 03:41:04,VALID,999.935,VALID,0,VALID,92.9135,VALID,0,VALID,23.3695,VALID,35,VALID,0.594531,
2010-08-07, 03:42:04,VALID,999.937,VALID,0,VALID,92.883,VALID,0,VALID,23.35,VALID,34,VALID,0.572656,
2010-08-07, 03:43:04,VALID,999.941,VALID,0,VALID,92.8983,VALID,0,VALID,23.35,VALID,357,VALID,0.647266,
2010-08-07, 03:44:04,VALID,999.919,VALID,0,VALID,92.8983,VALID,0,VALID,23.3695,VALID,345,VALID,0.376953,
2010-08-07, 03:45:04,VALID,999.943,VALID,0,VALID,92.9288,VALID,0,VALID,23.3695,VALID,345,VALID,0.300391,
2010-08-07, 03:46:04,VALID,999.928,VALID,0,VALID,92.9364,VALID,0,VALID,23.3695,VALID,349,VALID,0.303906,
2010-08-07, 03:47:04,VALID,999.899,VALID,0,VALID,92.9135,VALID,0,VALID,23.35,VALID,359,VALID,0.186719,